KMTN

Martin State Airport

Baltimore, Maryland, USA
Issued Wind Visibility Temperature Dew Point Humidity Barometer
Sep-24
19:45 UTC
150°
4 KTS
10 miles 31° C
88° F
21° C
70° F
55% 30.05" Hg
1018 hPa
VFR
Sep-24
18:45 UTC
160°
5 KTS
10 miles 31° C
88° F
21° C
70° F
55% 30.06" Hg
1018 hPa
VFR
Sep-24
17:45 UTC
120°
6 KTS
10 miles 30° C
86° F
22° C
72° F
62% 30.08" Hg
1019 hPa
VFR
Sep-24
16:45 UTC
020°
4 KTS
10 miles 31° C
88° F
19° C
66° F
49% 30.09" Hg
1019 hPa
VFR
Sep-24
15:45 UTC
10 miles 30° C
86° F
19° C
66° F
52% 30.1" Hg
1019 hPa
VFR
Sep-24
14:45 UTC
330°
3 KTS
10 miles 28° C
82° F
19° C
66° F
58% 30.11" Hg
1020 hPa
VFR
Sep-24
13:45 UTC
10 miles 27° C
81° F
21° C
70° F
70% 30.11" Hg
1020 hPa
VFR
Sep-24
12:45 UTC
10 miles 23° C
73° F
20° C
68° F
83% 30.11" Hg
1020 hPa
VFR
Sep-24
11:45 UTC
10 miles 20° C
68° F
18° C
64° F
88% 30.11" Hg
1020 hPa
VFR
Sep-24
10:45 UTC
10 miles 18° C
64° F
17° C
63° F
94% 30.1" Hg
1019 hPa
VFR
Sep-24
09:45 UTC
10 miles 19° C
66° F
18° C
64° F
94% 30.08" Hg
1019 hPa
VFR
Sep-24
09:33 UTC
10 miles 18° C
64° F
18° C
64° F
100% 30.07" Hg
1018 hPa
VFR
Sep-24
09:18 UTC
10 miles 18° C
64° F
17° C
63° F
94% 30.07" Hg
1018 hPa
VFR
Sep-24
08:57 UTC
10 miles 18° C
64° F
17° C
63° F
94% 30.07" Hg
1018 hPa
VFR
Sep-24
08:39 UTC
10 miles 18° C
64° F
17° C
63° F
94% 30.07" Hg
1018 hPa
VFR
Sep-24
08:18 UTC
10 miles 18° C
64° F
16° C
61° F
88% 30.06" Hg
1018 hPa
VFR
Sep-24
07:57 UTC
10 miles 19° C
66° F
17° C
63° F
88% 30.06" Hg
1018 hPa
VFR
Sep-24
07:39 UTC
10 miles 19° C
66° F
17° C
63° F
88% 30.06" Hg
1018 hPa
VFR
Sep-24
07:18 UTC
10 miles 20° C
68° F
17° C
63° F
83% 30.06" Hg
1018 hPa
VFR
Sep-24
06:57 UTC
10 miles 19° C
66° F
17° C
63° F
88% 30.06" Hg
1018 hPa
VFR
Sep-24
06:39 UTC
10 miles 19° C
66° F
17° C
63° F
88% 30.06" Hg
1018 hPa
VFR
Sep-24
06:18 UTC
10 miles 20° C
68° F
17° C
63° F
83% 30.06" Hg
1018 hPa
VFR
Sep-24
05:57 UTC
10 miles 19° C
66° F
17° C
63° F
88% 30.06" Hg
1018 hPa
VFR
Sep-24
05:39 UTC
10 miles 19° C
66° F
16° C
61° F
83% 30.06" Hg
1018 hPa
VFR
Sep-24
05:18 UTC
10 miles 20° C
68° F
16° C
61° F
78% 30.06" Hg
1018 hPa
VFR
Sep-24
04:57 UTC
10 miles 20° C
68° F
16° C
61° F
78% 30.06" Hg
1018 hPa
VFR
Sep-24
04:39 UTC
10 miles 20° C
68° F
16° C
61° F
78% 30.07" Hg
1018 hPa
VFR
Sep-24
04:18 UTC
10 miles 20° C
68° F
16° C
61° F
78% 30.07" Hg
1018 hPa
VFR
Sep-24
03:57 UTC
10 miles 20° C
68° F
16° C
61° F
78% 30.07" Hg
1018 hPa
VFR
Sep-24
03:39 UTC
10 miles 20° C
68° F
17° C
63° F
83% 30.07" Hg
1018 hPa
VFR
Sep-24
03:18 UTC
10 miles 20° C
68° F
16° C
61° F
78% 30.07" Hg
1018 hPa
VFR
Sep-24
02:57 UTC
10 miles 20° C
68° F
16° C
61° F
78% 30.08" Hg
1019 hPa
VFR
Sep-24
02:39 UTC
10 miles 21° C
70° F
17° C
63° F
78% 30.08" Hg
1019 hPa
VFR
Sep-24
02:18 UTC
10 miles 21° C
70° F
17° C
63° F
78% 30.08" Hg
1019 hPa
VFR
Sep-24
01:45 UTC
10 miles 21° C
70° F
17° C
63° F
78% 30.07" Hg
1018 hPa
VFR
Sep-24
00:45 UTC
10 miles 22° C
72° F
17° C
63° F
73% 30.07" Hg
1018 hPa
VFR
Sep-23
23:50 UTC
10 miles 23° C
73° F
17° C
63° F
69% 30.07" Hg
1018 hPa
VFR
Sep-23
22:45 UTC
310°
6 KTS
10 miles 27° C
81° F
15° C
59° F
48% 30.06" Hg
1018 hPa
VFR
Sep-23
21:45 UTC
310°
7 KTS
10 miles 30° C
86° F
13° C
55° F
35% 30.05" Hg
1018 hPa
VFR